India Forums Logo

Hum ne li hai... Shapath

India Forums > Forum Index > Hum ne li hai... Shapath
Hum ne li hai... Shapath is a story of tough cops against the flawed system with thrilling and contemporary police cases weaved in.
<< | 1 | 2 | 3 | 4 | 5 | 6 | 7 | 8 | 9 | 10 | 11 | 12 | 13 | 14 | 15 | 16 | 17 | ... >>
TIDTopic SubjectStart DateLast Entry
293579516/04/2012 WU: Where is Khushi???4/16/2012 12:47:41 PM4/17/2012 5:50:55 AM
2936092*~Shapathian Of The Week#10~*-Closed4/16/2012 6:59:50 PM4/22/2012 1:43:52 AM
2936568*~Hamaari Adhuri Kahani Siggy Contest~*-Closed4/17/2012 4:37:03 AM4/27/2012 1:51:38 AM
293740517/04/2012 WU: Murder or Suicide?4/17/2012 12:47:51 PM4/18/2012 9:27:10 AM
293749117th April HumNe Li Hai Shapth-Video WO/Dl4/17/2012 1:42:12 PM4/18/2012 4:20:02 AM
2938301HAPPY for Shapath..trps will shoot up!!4/18/2012 5:42:18 AM4/18/2012 9:06:36 AM
293892418th April HumNe Li Hai Shapth-Video WO/Dl4/18/2012 11:36:02 AM4/18/2012 9:42:44 PM
293905618/04/2012 WU: Khushi Was Murdered?4/18/2012 12:53:58 PM4/19/2012 5:46:42 AM
294053919th April HumNe Li Hai Shapth-Video WO/Dl4/19/2012 12:40:50 PM4/20/2012 5:27:06 AM
2940639New time slot (Bi-weekly)4/19/2012 2:22:15 PM5/8/2012 1:17:33 AM
2941324HNLHS Spoiler-20 to 22/04/20124/20/2012 5:26:21 AM4/20/2012 6:41:57 AM
2941411FT:Sarwar Ahuja and Narendra Jha roped in Shapath4/20/2012 7:04:21 AM4/28/2012 3:26:24 AM
2941426WU: 19-04-12...4/20/2012 7:21:38 AM4/20/2012 1:48:21 PM
294205520th April HumNe Li Hai Shapth-Video WO/Dl4/20/2012 12:35:11 PM4/20/2012 12:35:11 PM
294206920/04/2012 WU: Chasing Priya4/20/2012 12:44:35 PM4/20/2012 12:44:35 PM
2942212Abhigyaan aka Piyush in nachle ve (with links)4/20/2012 3:39:54 PM4/25/2012 4:34:07 PM
2942580Some photos of Hasan and Madhura4/21/2012 2:41:23 AM4/21/2012 3:27:32 AM
2943192Game Over..! Koi Shak!??4/21/2012 11:40:45 AM4/21/2012 12:58:50 PM
2943798Mistake!!!!!!4/22/2012 5:58:13 AM4/23/2012 12:10:13 PM
2943858WU 21-4-12~~ Game over4/22/2012 7:07:54 AM4/25/2012 1:22:34 AM
294395021st April HumNe Li Hai Shapth-Video WO/Dl4/22/2012 9:10:54 AM4/22/2012 9:10:54 AM
2944270DOTW: LifeOK Changes4/22/2012 3:29:01 PM4/25/2012 3:33:42 AM
2944275TAM Ratings (08/04/2012 to 14/04/2012)4/22/2012 3:35:54 PM4/22/2012 3:35:54 PM
2944827*~Shapathian Of The Week#11~*-Closed4/23/2012 1:58:49 AM4/29/2012 10:23:48 AM
2947038Name of this show4/24/2012 12:31:37 AM4/24/2012 2:08:56 AM
2947048Shikha's role4/24/2012 12:38:13 AM4/24/2012 7:40:28 AM
2948164Jaago shapatian jaago4/24/2012 11:25:22 AM4/26/2012 4:14:23 AM
2950121VM coming soon to celebrate 100 episodes4/25/2012 4:44:19 PM4/26/2012 4:28:04 AM
2950238More faces get on board for Life OK's Shapath4/25/2012 8:58:56 PM4/28/2012 3:24:59 AM
2950709HNLHS New Case Synopsis-28/04/2012 Check Pg.24/26/2012 5:27:52 AM4/27/2012 2:40:48 AM
2950899Antakshiri ... Game ...lets Rock4/26/2012 7:13:52 AM4/30/2012 4:24:36 AM
2951787Hum Ne Li Hai Shapath - 27th April 2012 Promo4/26/2012 5:43:51 PM4/27/2012 7:35:54 AM
2953356New male lead in shapath4/27/2012 4:04:20 PM4/27/2012 8:09:45 PM
2953790*~Humaari Adhuri Kahani Sig Contest~*Voting Closed4/28/2012 4:38:19 AM5/27/2012 7:46:41 AM
295424928th April HumNe Li Hai Shapth-Video WO/Dl4/28/2012 11:56:31 AM4/28/2012 8:57:00 PM
2954379Shapath needs flavor...4/28/2012 3:15:42 PM4/30/2012 10:15:07 AM
2954642WU: 28-4-12.. humanless murder of children4/29/2012 1:35:01 AM4/30/2012 7:04:24 AM
295532229th April HumNe Li Hai Shapth-Video WO/Dl4/29/2012 4:00:38 PM4/30/2012 4:52:22 AM
295572829/04/2012 WU: Bandar Aur Magicians4/30/2012 4:30:37 AM5/5/2012 3:50:32 PM
2955944Are They Different????4/30/2012 7:31:54 AM5/18/2012 7:25:24 AM
2956521Word Building GOTW4/30/2012 12:25:46 PM5/4/2012 4:50:15 AM
2957563*~Shapatian Of The Week#12~*-Closed5/1/2012 9:12:24 AM5/18/2012 5:12:34 AM
2957855Join Shapath Forum at If5/1/2012 11:39:55 AM5/1/2012 11:39:55 AM
2958705TB:Sonali Nikam to enter Life OK's Shapath !5/2/2012 5:11:23 AM5/2/2012 2:07:46 PM
2961592Imp : Plz check this out..5/4/2012 12:26:41 AM5/5/2012 11:44:36 AM
29638025th May HumNe Li Hai Shapth-Video WO/Dl5/5/2012 11:28:45 AM5/5/2012 6:50:40 PM
2964048blooper blooper5/5/2012 5:15:42 PM5/7/2012 3:43:25 AM
29650216th May HumNe Li Hai Shapth-Video WO/Dl5/6/2012 2:32:05 PM5/8/2012 7:55:03 AM
2965056As promised-VM for first 100 episodes5/6/2012 3:42:00 PM5/16/2012 1:15:04 PM
2967314Hum Ne Li Hai...Shapath-Ranking 35th5/8/2012 1:12:00 AM5/12/2012 12:39:00 PM
2970667@ 4th place5/9/2012 1:39:44 PM10/5/2012 6:13:58 PM
2970720deleted5/9/2012 2:11:28 PM5/10/2012 6:06:09 AM
2974641100 Episodes Celebration Party Pics5/11/2012 10:52:24 PM5/13/2012 10:03:41 AM
2975614Team is not Complete without a Good Female hero5/12/2012 12:35:45 PM5/13/2012 6:30:37 AM
2976092Check out Madhura's new Promo5/13/2012 1:58:06 AM5/16/2012 1:19:47 AM
297668713th May HumNe Li Hai Shapth-Video WO/Dl5/13/2012 12:59:03 PM5/14/2012 2:53:04 AM
2977116TC:Rucha Gujarathi on Shapath5/14/2012 2:18:06 AM5/15/2012 2:58:40 AM
2983126A new twist in Shapath5/17/2012 3:11:37 AM6/4/2012 10:43:40 AM
2983411Hasan Zaidi really fall in love in Shapath5/17/2012 5:37:18 AM5/20/2012 2:40:48 PM
2983488*~GOTW:Shapath Antakshari~*5/17/2012 6:18:07 AM5/18/2012 5:59:38 AM
2985342*~Hamaari Adhuri Kahani Siggy Contest~*-Winners5/18/2012 5:21:02 AM5/24/2012 6:52:31 AM
2985402*~GOTW:Name,Place N Thing~*5/18/2012 5:56:30 AM6/5/2012 5:58:00 AM
2985588where is shikha??dead or alive??5/18/2012 8:10:00 AM5/22/2012 5:38:08 PM
2987082Hasan Zaidi's small interveiw5/19/2012 2:57:54 AM5/19/2012 7:30:20 AM
2987813Is Guatam Suspended????5/19/2012 1:15:24 PM5/19/2012 2:26:35 PM
2988095Anant back,Gautam suspended5/19/2012 11:38:13 PM5/21/2012 7:31:07 AM
2988132Hasan Zaidi aka Gautam injured during action5/20/2012 12:37:39 AM5/20/2012 2:41:45 PM
2988156mayank5/20/2012 1:06:28 AM5/31/2012 11:51:04 AM
298896620th May -- EHQ Hum Ne Li Hai...Shapath WO/DL5/20/2012 12:26:20 PM5/20/2012 12:26:20 PM
298897119th May -- EHQ Hum Ne Li Hai...Shapath WO/DL5/20/2012 12:27:47 PM5/20/2012 12:27:47 PM
2988993For More Info n Pics !!!!!!!!!!!!!!!5/20/2012 12:50:54 PM5/20/2012 12:50:54 PM
2989455Ur fav officer5/21/2012 3:32:03 AM8/9/2012 3:58:49 AM
2991260New Show (Khattra for Shapath)5/22/2012 2:19:24 AM5/22/2012 10:06:49 AM
2993851New dark love story of Inspector Abhigyan (Update)5/23/2012 5:25:37 AM8/7/2012 12:35:28 AM
2993942TOL:Bakul Thakkar in Shapath5/23/2012 6:28:55 AM5/26/2012 3:43:54 AM
<< | 1 | 2 | 3 | 4 | 5 | 6 | 7 | 8 | 9 | 10 | 11 | 12 | 13 | 14 | 15 | 16 | 17 | ... >>